Tindouf, Algeria

11:58 AM CET en Noviembre 24, 2017 (GMT +0100)
Tindouf

Tiempo Historia de DAOF - Noviembre, 2017

Change the Weather History Date:

Miércoles, Noviembre 15, 2017

  Actual Average Record
Temperature  
Temperatura media 66 ° F -  
Temperatura máxima 81 ° F - - ()
Temperatura mínima 52 ° F - - ()
Cooling Degree Days 2    
Growing Degree Days 16 (Base 50)    
Moisture  
Punto de rocío 23 ° F    
Average Humidity 18    
Maximum Humidity 30    
Minimum Humidity 6    
Precipitación  
Precipitación 0.00 pul - - ()
Presión al nivel del mar  
Presión al nivel del mar 30.00 pul    
Viento  
Velocidad del viento 5 mph ()    
Velocidad máxima del viento 14 mph    
Max Gust Speed -    
Visibilidad 7.5 Millas    
Eventos      
T = Trace of Precipitation, MM = Missing Value Source: Averaged Metar Reports

Daily Weather History Graph

Daily Weather History Graph

Search for Another Location

Airport or City:

Trip Planner

Search our weather history database for the weather conditions in past years. The results will help you decide how hot, cold, wet, or windy it might be!

Date:

Astronomía

Nov. 15, 2017 Salida Puesta
Hora real 7:53 AM CET 6:40 PM CET
Crepúsculo civil 7:28 AM CET 7:05 PM CET
Crepúsculo náutico 7:00 AM CET 7:33 PM CET
Crepúsculo astronómico 6:32 AM CET 8:01 PM CET
Luna 5:02 AM CET (11/15) 5:09 PM CET (11/15)
Horas de luz 11h 36m
Horas de luz
10h 46m
Creciente menguante, 9% of the Moon is Illuminated
Nov 15
Creciente menguante
Nov 18
Nueva
Nov 26
Cuarto creciente
Dic 3
Luna llena
Dic 10
Cuarto menguante

Hourly Weather History & Observations

Hora (CET) Temp. Punto de rocío Humedad Presión Visibilidad Wind Dir Velocidad del viento Velocidad de ráfagas Precip Eventos Condiciones
1:00 AM 59 ° F 24 ° F 15% 29.94 pul 6 mi NNE 5.8 mph - -  
1:00 AM 59.0 ° F 23.0 ° F 25% 29.98 pul - NNE 5.8 mph - N/A   Despejado
2:00 AM 59.0 ° F 23.0 ° F 25% 29.98 pul - NNE 4.6 mph - N/A   Despejado
3:00 AM 57.2 ° F 23.0 ° F 27% 29.98 pul - NE 4.6 mph - N/A   Despejado
4:00 AM 56 ° F 23 ° F 17% 29.93 pul 6 mi Norte 4.6 mph - -  
4:00 AM 57.2 ° F 23.0 ° F 27% 29.98 pul - Norte 4.6 mph - N/A   Despejado
5:00 AM 55.4 ° F 23.0 ° F 29% 29.98 pul - NNE 4.6 mph - N/A   Despejado
6:00 AM 55.4 ° F 23.0 ° F 29% 29.98 pul - ENE 6.9 mph - N/A   Despejado
7:00 AM 53 ° F 22 ° F 18% 29.96 pul 6 mi NE 5.8 mph - -  
7:00 AM 53.6 ° F 23.0 ° F 30% 29.98 pul - NE 5.8 mph - N/A   Despejado
8:00 AM 53.6 ° F 23.0 ° F 30% 30.01 pul - ENE 5.8 mph - N/A   Despejado
9:00 AM 53.6 ° F 14.0 ° F 21% 30.04 pul - ENE 4.6 mph - N/A   Despejado
10:00 AM 61 ° F 20 ° F 11% 30.02 pul 9 mi ENE 5.8 mph - -  
10:00 AM 60.8 ° F 19.4 ° F 20% 30.04 pul - ENE 5.8 mph - N/A   Despejado
11:00 AM 64.4 ° F 23.0 ° F 21% 30.06 pul - ESE 4.6 mph - N/A   Despejado
12:00 PM 69.8 ° F 26.6 ° F 20% 30.06 pul - Este 6.9 mph - N/A   Despejado
1:00 PM 74 ° F 28 ° F 9% 30.00 pul 9 mi ESE 6.9 mph - -  
1:00 PM 73.4 ° F 28.4 ° F 19% 30.04 pul - ESE 6.9 mph - N/A   Despejado
2:00 PM 78.8 ° F 26.6 ° F 15% 30.01 pul - SSE 4.6 mph - N/A   Despejado
3:00 PM 80.6 ° F 23.0 ° F 12% 30.01 pul - Sur 13.8 mph - N/A   Despejado
4:00 PM 81 ° F 26 ° F 6% 29.93 pul 9 mi SE 11.5 mph - -   Despejado
4:00 PM 80.6 ° F 26.6 ° F 14% 29.98 pul - SE 11.5 mph - N/A   Despejado
5:00 PM 80.6 ° F 23.0 ° F 12% 29.98 pul - SSE 10.4 mph - N/A   Despejado
6:00 PM 80.6 ° F 21.2 ° F 11% 29.98 pul - SSE 8.1 mph - N/A   Despejado
7:00 PM 75 ° F 22 ° F 6% 29.95 pul 9 mi SSE 5.8 mph - -   Despejado
7:00 PM 75.2 ° F 23.0 ° F 14% 29.98 pul - SSE 5.8 mph - N/A   Despejado
8:00 PM 71.6 ° F 24.8 ° F 17% 30.01 pul - Sur 3.5 mph - N/A   Despejado
9:00 PM 69.8 ° F 24.8 ° F 18% 30.04 pul - SSE 3.5 mph - N/A   Despejado
10:00 PM 67 ° F 23 ° F 10% 30.01 pul 6 mi SSE 6.9 mph - -   Despejado
10:00 PM 66.2 ° F 23.0 ° F 19% 30.04 pul - SSE 6.9 mph - N/A   Despejado
11:00 PM 64.4 ° F 23.0 ° F 21% 30.06 pul - Sur 5.8 mph - N/A   Despejado